SHENZHOU-17 (SZ-17)

Last updated on Wed May 01 2024 00:02:07 GMT+0000 (Coordinated Universal Time)

1 58146U 23164A 24121.38038675 .00044605 00000+0 48281-3 0 9994 2 58146 41.4714 15.1398 0003707 281.7577 78.2846 15.62762411 29313
UTC large
Height (km)
Speed (km/s)
/
Latitude / Longitude
Inclination (degrees)
Orbital Period (minutes)
Azimuth
Elevation
Range (km)
Doppler Factor

Next 0 passes for location: London (51.5072 / 0.1276)

Sorry there are no passes over London.